Randolph AFB, TX

12:20 PM CDT on March 26, 2017 (GMT -0500)
Randolph Air Force Base

Weather History for KRND - January, 2014

Change the Weather History Date:

Friday, January 10, 2014

  Actual Average Record
Temperature  
Mean Temperature 64 °F -  
Max Temperature 71 °F 60 °F 79 °F (2017)
Min Temperature 57 °F 41 °F 23 °F (1999)
Growing Degree Days 14 (Base 50)    
Moisture  
Dew Point 60 °F    
Average Humidity 88    
Maximum Humidity 94    
Minimum Humidity 62    
Precipitation  
Precipitation 0.03 in - - ()
Sea Level Pressure  
Sea Level Pressure 29.90 in    
Wind  
Wind Speed 10 mph (SSW)    
Max Wind Speed 13 mph    
Max Gust Speed -    
Visibility 8 miles    
Events Rain    
Averages and records for this station are not official NWS values.
T = Trace of Precipitation, MM = Missing Value Source: NWS Daily Summary

Daily Weather History Graph

Daily Weather History Graph

Search for Another Location

Airport or City:

Trip Planner

Search our weather history database for the weather conditions in past years. The results will help you decide how hot, cold, wet, or windy it might be!

Date:

Astronomy

Jan. 10, 2014 Rise Set
Actual Time 7:29 AM CST 5:52 PM CST
Civil Twilight 7:03 AM CST 6:18 PM CST
Nautical Twilight 6:33 AM CST 6:47 PM CST
Astronomical Twilight 6:04 AM CST 7:16 PM CST
Moon 1:51 PM CST (1/10) 2:45 AM CST (1/10)
Length of Visible Light 11h 15m
Length of Day
10h 23m
Waxing Gibbous, 75% of the Moon is Illuminated
Jan 10
Waxing Gibbous
Jan 15
Full
Jan 23
Last Quarter
Jan 30
New
Feb 6
First Quarter

Hourly Weather History & Observations

Time (CST) Temp. Dew Point Humidity Pressure Visibility Wind Dir Wind Speed Gust Speed Precip Events Conditions
12:58 AM 62.6 °F 60.8 °F 94% 29.99 in 10.0 mi South 10.4 mph - N/A   Overcast
1:03 AM 62.6 °F 60.8 °F 94% 29.99 in 10.0 mi South 11.5 mph - N/A   Mostly Cloudy
1:18 AM 62.6 °F 60.8 °F 94% 29.98 in 10.0 mi South 12.7 mph - N/A   Mostly Cloudy
1:38 AM 62.6 °F 60.8 °F 94% 29.98 in 10.0 mi South 11.5 mph - N/A   Mostly Cloudy
1:58 AM 63.5 °F 60.4 °F 90% 29.96 in 10.0 mi South 12.7 mph - N/A   Overcast
2:38 AM 64.4 °F 60.8 °F 88% 29.95 in 10.0 mi South 10.4 mph - N/A   Mostly Cloudy
2:58 AM 63.7 °F 60.4 °F 89% 29.94 in 10.0 mi South 12.7 mph - N/A   Mostly Cloudy
3:18 AM 64.4 °F 60.8 °F 88% 29.95 in 10.0 mi South 10.4 mph - N/A   Mostly Cloudy
3:23 AM 64.4 °F 60.8 °F 88% 29.94 in 10.0 mi South 9.2 mph - N/A   Mostly Cloudy
3:58 AM 62.6 °F 60.8 °F 94% 29.93 in 10.0 mi South 5.8 mph - N/A   Mostly Cloudy
4:48 AM 64.4 °F 60.8 °F 88% 29.93 in 10.0 mi South 9.2 mph - N/A   Overcast
4:53 AM 64.4 °F 60.8 °F 88% 29.93 in 10.0 mi South 9.2 mph - N/A   Mostly Cloudy
4:58 AM 63.5 °F 60.6 °F 90% 29.92 in 10.0 mi South 10.4 mph - N/A   Mostly Cloudy
5:08 AM 62.6 °F 60.8 °F 94% 29.92 in 10.0 mi South 10.4 mph - N/A   Mostly Cloudy
5:58 AM 63.1 °F 60.4 °F 91% 29.90 in 10.0 mi South 10.4 mph - N/A   Scattered Clouds
6:14 AM 62.6 °F 60.8 °F 94% 29.91 in 10.0 mi South 12.7 mph - N/A   Scattered Clouds
6:22 AM 62.6 °F 60.8 °F 94% 29.91 in 10.0 mi South 11.5 mph - N/A   Mostly Cloudy
6:27 AM 62.6 °F 60.8 °F 94% 29.91 in 10.0 mi South 12.7 mph - N/A   Mostly Cloudy
6:58 AM 62.8 °F 60.4 °F 92% 29.91 in 4.0 mi SSW 8.1 mph - N/A   Overcast
7:18 AM 62.6 °F 60.8 °F 94% 29.93 in 2.0 mi SSW 8.1 mph - N/A Rain Light Rain
7:26 AM 62.6 °F 60.8 °F 94% 29.93 in 2.5 mi SSW 6.9 mph - N/A   Light Drizzle
7:30 AM 62.6 °F 60.8 °F 94% 29.93 in 3.0 mi South 8.1 mph - N/A   Light Drizzle
7:42 AM 62.6 °F 60.8 °F 94% 29.93 in 5.0 mi South 8.1 mph - N/A   Overcast
7:58 AM 62.8 °F 61.0 °F 94% 29.92 in 4.0 mi South 6.9 mph - 0.01 in   Light Drizzle
8:03 AM 62.6 °F 60.8 °F 94% 29.93 in 5.0 mi SSW 6.9 mph - N/A   Light Drizzle
8:26 AM 62.6 °F 60.8 °F 94% 29.94 in 5.0 mi South 8.1 mph - N/A   Overcast
8:42 AM 62.6 °F 60.8 °F 94% 29.95 in 3.0 mi SSW 6.9 mph - N/A   Light Drizzle
8:58 AM 62.6 °F 60.8 °F 94% 29.94 in 4.0 mi South 8.1 mph - 0.00 in Rain Light Rain
9:09 AM 62.6 °F 60.8 °F 94% 29.95 in 6.0 mi South 6.9 mph - N/A   Overcast
9:58 AM 63.9 °F 62.1 °F 94% 29.95 in 3.0 mi South 8.1 mph - 0.00 in   Light Drizzle
10:58 AM 63.9 °F 62.1 °F 94% 29.93 in 3.0 mi SW 6.9 mph - 0.01 in   Light Drizzle
11:24 AM 64.4 °F 62.6 °F 94% 29.92 in 6.0 mi SSW 5.8 mph - N/A   Light Drizzle
11:58 AM 64.8 °F 62.6 °F 93% 29.89 in 6.0 mi SW 9.2 mph - 0.01 in   Overcast
12:03 PM 64.4 °F 62.6 °F 94% 29.90 in 10.0 mi SSW 9.2 mph - N/A   Light Drizzle
12:06 PM 64.4 °F 62.6 °F 94% 29.90 in 10.0 mi SSW 10.4 mph - N/A   Overcast
12:11 PM 64.4 °F 62.6 °F 94% 29.89 in 10.0 mi South 10.4 mph - N/A   Mostly Cloudy
12:21 PM 64.4 °F 62.6 °F 94% 29.87 in 10.0 mi South 11.5 mph - N/A   Scattered Clouds
12:31 PM 66.2 °F 62.6 °F 88% 29.87 in 10.0 mi SSW 8.1 mph - N/A   Mostly Cloudy
12:36 PM 66.2 °F 62.6 °F 88% 29.87 in 10.0 mi SW 8.1 mph - N/A   Overcast
12:58 PM 66.2 °F 62.1 °F 86% 29.85 in 10.0 mi SSW 10.4 mph - 0.00 in   Mostly Cloudy
1:13 PM 68.0 °F 60.8 °F 78% 29.84 in 10.0 mi SSW 12.7 mph - N/A   Mostly Cloudy
1:23 PM 68.0 °F 60.8 °F 78% 29.83 in 10.0 mi SW 11.5 mph - N/A   Overcast
1:58 PM 68.4 °F 60.1 °F 75% 29.81 in 10.0 mi WSW 9.2 mph - N/A   Overcast
2:38 PM 69.8 °F 59.0 °F 68% 29.81 in 10.0 mi WSW 9.2 mph - N/A   Overcast
2:58 PM 69.4 °F 58.5 °F 68% 29.79 in 10.0 mi WSW 9.2 mph - N/A   Overcast
3:58 PM 71.4 °F 57.9 °F 62% 29.80 in 10.0 mi WSW 10.4 mph - N/A   Partly Cloudy
4:58 PM 68.7 °F 57.6 °F 67% 29.80 in 10.0 mi WSW 9.2 mph - N/A   Clear
5:58 PM 66.7 °F 56.8 °F 70% 29.82 in 10.0 mi WSW 5.8 mph - N/A   Clear
6:58 PM 65.1 °F 56.8 °F 75% 29.83 in 10.0 mi SW 4.6 mph - N/A   Scattered Clouds
7:58 PM 63.3 °F 56.5 °F 78% 29.84 in 10.0 mi SW 5.8 mph - N/A   Clear
8:58 PM 61.0 °F 56.1 °F 84% 29.85 in 10.0 mi SW 5.8 mph - N/A   Clear
9:58 PM 59.5 °F 55.4 °F 86% 29.87 in 10.0 mi WSW 4.6 mph - N/A   Clear
10:58 PM 58.6 °F 54.7 °F 87% 29.87 in 10.0 mi West 5.8 mph - N/A   Clear
11:58 PM 57.9 °F 54.3 °F 88% 29.87 in 10.0 mi WSW 5.8 mph - N/A   Clear